• In Hungary
  • List of Countries
  • For 7 days
  • Water Temperature
  • Satellite Maps
  • Weather Map
  • News
  • Weather Widgets
  • user-avatar
    Login

    Hourly Weather Timsher

    Today, 18 July, Wednesday

    Time Temperature Precipitation Wind Pressure Humidity
    00:00 +18°C° 0 mm 2 mps 749 mmHg 80%
    01:00 +17°C° 0 mm 3 mps 749 mmHg 80%
    02:00 +17°C° 0 mm 3 mps 749 mmHg 80%
    03:00 +16°C° 0 mm 3 mps 749 mmHg 81%
    04:00 +16°C° 0 mm 3 mps 750 mmHg 82%
    05:00 +17°C° 0 mm 3 mps 750 mmHg 79%
    06:00 +18°C° 0 mm 3 mps 750 mmHg 75%
    07:00 +19°C° 0 mm 3 mps 750 mmHg 71%
    08:00 +21°C° 0 mm 3 mps 750 mmHg 66%
    09:00 +24°C° 0 mm 3 mps 750 mmHg 61%
    10:00 +26°C° 0 mm 3 mps 750 mmHg 56%
    11:00 +26°C° 0.2 mm 3 mps 750 mmHg 55%
    12:00 +27°C° 0.2 mm 3 mps 750 mmHg 54%
    13:00 +28°C° 0.2 mm 3 mps 750 mmHg 53%
    14:00 +29°C° 0.2 mm 3 mps 749 mmHg 51%
    15:00 +29°C° 0.2 mm 3 mps 749 mmHg 49%
    16:00 +29°C° 0.2 mm 3 mps 749 mmHg 47%
    17:00 +28°C° 0 mm 3 mps 749 mmHg 49%
    18:00 +28°C° 0 mm 3 mps 749 mmHg 51%
    19:00 +27°C° 0 mm 3 mps 750 mmHg 53%
    20:00 +26°C° 0 mm 3 mps 750 mmHg 58%
    21:00 +24°C° 0 mm 3 mps 750 mmHg 63%
    22:00 +21°C° 0 mm 3 mps 750 mmHg 67%
    23:00 +20°C° 0 mm 3 mps 750 mmHg 69%

    Tomorrow, 19 July, Thursday

    Time Temperature Precipitation Wind Pressure Humidity
    00:00 +20°C° 0 mm 3 mps 750 mmHg 70%
    01:00 +19°C° 0 mm 3 mps 751 mmHg 71%
    02:00 +19°C° 0 mm 3 mps 751 mmHg 73%
    03:00 +18°C° 0 mm 2 mps 751 mmHg 74%
    04:00 +18°C° 0 mm 2 mps 751 mmHg 75%
    05:00 +19°C° 0 mm 2 mps 751 mmHg 70%
    06:00 +20°C° 0 mm 3 mps 751 mmHg 65%
    07:00 +21°C° 0 mm 3 mps 751 mmHg 60%
    08:00 +24°C° 0 mm 3 mps 751 mmHg 54%
    09:00 +26°C° 0 mm 3 mps 751 mmHg 48%
    10:00 +27°C° 0 mm 4 mps 751 mmHg 42%
    11:00 +28°C° 0 mm 4 mps 751 mmHg 40%
    12:00 +28°C° 0 mm 4 mps 751 mmHg 37%
    13:00 +29°C° 0 mm 4 mps 751 mmHg 35%
    14:00 +29°C° 0 mm 4 mps 751 mmHg 35%
    15:00 +29°C° 0 mm 4 mps 751 mmHg 35%
    16:00 +29°C° 0 mm 4 mps 751 mmHg 34%
    17:00 +29°C° 0 mm 4 mps 751 mmHg 38%
    18:00 +28°C° 0 mm 3 mps 751 mmHg 42%
    19:00 +27°C° 0 mm 2 mps 751 mmHg 46%
    20:00 +25°C° 0 mm 2 mps 752 mmHg 52%
    21:00 +23°C° 0 mm 2 mps 752 mmHg 58%
    22:00 +20°C° 0 mm 2 mps 752 mmHg 63%
    23:00 +19°C° 0 mm 2 mps 752 mmHg 66%

    Day after tomorrow, 20 July, Friday

    Time Temperature Precipitation Wind Pressure Humidity
    00:00 +19°C° 0 mm 2 mps 753 mmHg 69%
    01:00 +18°C° 0 mm 2 mps 753 mmHg 72%
    02:00 +17°C° 0 mm 2 mps 753 mmHg 74%
    03:00 +17°C° 0 mm 2 mps 753 mmHg 76%
    04:00 +16°C° 0 mm 2 mps 754 mmHg 78%
    05:00 +17°C° 0 mm 2 mps 754 mmHg 72%
    06:00 +19°C° 0 mm 2 mps 754 mmHg 66%
    07:00 +20°C° 0 mm 3 mps 754 mmHg 60%
    08:00 +22°C° 0 mm 3 mps 754 mmHg 54%
    09:00 +24°C° 0 mm 3 mps 754 mmHg 48%
    10:00 +26°C° 0 mm 4 mps 754 mmHg 42%
    11:00 +27°C° 0 mm 4 mps 754 mmHg 39%
    12:00 +27°C° 0 mm 4 mps 754 mmHg 37%
    13:00 +28°C° 0 mm 4 mps 754 mmHg 35%
    14:00 +28°C° 0 mm 4 mps 754 mmHg 35%
    15:00 +28°C° 0 mm 4 mps 754 mmHg 35%
    16:00 +29°C° 0 mm 4 mps 754 mmHg 34%
    17:00 +28°C° 0 mm 3 mps 754 mmHg 38%
    18:00 +27°C° 0 mm 2 mps 754 mmHg 42%
    19:00 +26°C° 0 mm 2 mps 754 mmHg 46%
    20:00 +24°C° 0 mm 2 mps 754 mmHg 52%
    21:00 +21°C° 0 mm 2 mps 754 mmHg 57%
    22:00 +19°C° 0 mm 2 mps 755 mmHg 63%
    23:00 +19°C° 0 mm 2 mps 755 mmHg 65%

    21 July, Saturday

    Time Temperature Precipitation Wind Pressure Humidity
    00:00 +18°C° 0 mm 2 mps 755 mmHg 67%
    01:00 +17°C° 0 mm 2 mps 755 mmHg 69%
    02:00 +16°C° 0 mm 2 mps 756 mmHg 72%
    03:00 +16°C° 0 mm 2 mps 756 mmHg 75%
    04:00 +15°C° 0 mm 2 mps 756 mmHg 78%
    05:00 +16°C° 0 mm 2 mps 756 mmHg 72%
    06:00 +18°C° 0 mm 2 mps 756 mmHg 66%
    07:00 +20°C° 0 mm 2 mps 757 mmHg 61%
    08:00 +21°C° 0 mm 2 mps 756 mmHg 54%
    09:00 +24°C° 0 mm 3 mps 756 mmHg 47%
    10:00 +26°C° 0 mm 3 mps 756 mmHg 40%
    11:00 +26°C° 0 mm 3 mps 756 mmHg 38%
    12:00 +27°C° 0 mm 3 mps 756 mmHg 35%
    13:00 +28°C° 0 mm 3 mps 756 mmHg 33%
    14:00 +28°C° 0 mm 3 mps 755 mmHg 32%
    15:00 +28°C° 0 mm 3 mps 755 mmHg 31%
    16:00 +29°C° 0 mm 3 mps 755 mmHg 31%
    17:00 +28°C° 0 mm 2 mps 755 mmHg 35%
    18:00 +27°C° 0 mm 2 mps 755 mmHg 39%
    19:00 +27°C° 0 mm 2 mps 755 mmHg 43%
    20:00 +24°C° 0 mm 2 mps 755 mmHg 48%
    21:00 +22°C° 0 mm 1 mps 755 mmHg 54%
    22:00 +20°C° 0 mm 1 mps 755 mmHg 60%
    23:00 +19°C° 0 mm 1 mps 755 mmHg 63%

    22 July, Sunday

    Time Temperature Precipitation Wind Pressure Humidity
    00:00 +18°C° 0 mm 1 mps 755 mmHg 66%
    01:00 +16°C° 0 mm 2 mps 756 mmHg 68%
    02:00 +15°C° 0 mm 1 mps 756 mmHg 70%
    03:00 +15°C° 0 mm 1 mps 756 mmHg 71%
    04:00 +14°C° 0 mm 1 mps 756 mmHg 72%
    05:00 +16°C° 0 mm 2 mps 756 mmHg 66%
    06:00 +17°C° 0 mm 2 mps 756 mmHg 59%
    07:00 +19°C° 0 mm 2 mps 756 mmHg 53%
    08:00 +21°C° 0 mm 2 mps 756 mmHg 47%
    09:00 +22°C° 0 mm 3 mps 756 mmHg 41%
    10:00 +25°C° 0 mm 3 mps 756 mmHg 35%
    11:00 +26°C° 0 mm 3 mps 756 mmHg 33%
    12:00 +27°C° 0 mm 3 mps 755 mmHg 31%
    13:00 +28°C° 0 mm 3 mps 755 mmHg 30%
    14:00 +28°C° 0 mm 3 mps 755 mmHg 29%
    15:00 +28°C° 0 mm 3 mps 754 mmHg 29%
    16:00 +29°C° 0 mm 3 mps 754 mmHg 29%
    17:00 +28°C° 0 mm 2 mps 754 mmHg 33%
    18:00 +27°C° 0 mm 2 mps 754 mmHg 38%
    19:00 +26°C° 0 mm 1 mps 754 mmHg 42%
    20:00 +24°C° 0 mm 1 mps 754 mmHg 48%
    21:00 +22°C° 0 mm 1 mps 754 mmHg 54%
    22:00 +19°C° 0 mm 1 mps 754 mmHg 59%
    23:00 +18°C° 0 mm 1 mps 754 mmHg 61%

    23 July, Monday

    Time Temperature Precipitation Wind Pressure Humidity
    00:00 +18°C° 0 mm 1 mps 754 mmHg 63%
    01:00 +16°C° 0 mm 1 mps 755 mmHg 65%
    02:00 +15°C° 0 mm 1 mps 755 mmHg 67%
    03:00 +15°C° 0 mm 1 mps 755 mmHg 69%
    04:00 +14°C° 0 mm 1 mps 755 mmHg 71%
    05:00 +16°C° 0 mm 1 mps 755 mmHg 66%
    06:00 +19°C° 0 mm 1 mps 755 mmHg 61%
    07:00 +21°C° 0 mm 1 mps 755 mmHg 56%
    08:00 +23°C° 0 mm 1 mps 755 mmHg 49%
    09:00 +25°C° 0 mm 2 mps 755 mmHg 43%
    10:00 +26°C° 0 mm 2 mps 755 mmHg 37%
    11:00 +27°C° 0 mm 2 mps 755 mmHg 35%
    12:00 +28°C° 0 mm 2 mps 754 mmHg 33%
    13:00 +29°C° 0 mm 2 mps 754 mmHg 31%
    14:00 +29°C° 0 mm 2 mps 754 mmHg 31%
    15:00 +30°C° 0 mm 2 mps 753 mmHg 30%
    16:00 +30°C° 0 mm 2 mps 753 mmHg 30%
    17:00 +29°C° 0 mm 2 mps 753 mmHg 35%
    18:00 +28°C° 0 mm 1 mps 753 mmHg 40%
    19:00 +27°C° 0 mm 1 mps 753 mmHg 45%
    20:00 +25°C° 0 mm 1 mps 753 mmHg 51%
    21:00 +23°C° 0 mm 1 mps 753 mmHg 56%
    22:00 +21°C° 0 mm 1 mps 753 mmHg 62%
    23:00 +20°C° 0 mm 1 mps 753 mmHg 64%
    Show more